This is the latest recevied weather packets stored in our database for station/object K7CTM. If no packets are shown the sender has not sent any weather packets the latest 10 day(s).
| Time | Temp. | Humidity | Pressure | Rain* | Wind** | Luminosity | Snow |
|---|---|---|---|---|---|---|---|
| 1778008783 | 8.33° C | 38% | 1026.2 hPa | 0 mm | - | 242 W/m² | - |
| 1778008481 | 8.33° C | 37% | 1026.1 hPa | 0 mm | - | 217 W/m² | - |
| 1778008178 | 8.89° C | 38% | 1026.1 hPa | 0 mm | - | 351 W/m² | - |
| 1778007873 | 9.44° C | 36% | 1026.3 hPa | 0 mm | - | 330 W/m² | - |
| 1778007568 | 8.33° C | 39% | 1026.1 hPa | 0 mm | - | 675 W/m² | - |
| 1778007266 | 8.33° C | 40% | 1026.2 hPa | 0 mm | - | 244 W/m² | - |
| 1778006962 | 8.33° C | 40% | 1026.3 hPa | 0 mm | - | 262 W/m² | - |
| 1778006659 | 8.89° C | 38% | 1026.3 hPa | 0 mm | - | 211 W/m² | - |
| 1778006356 | 10° C | 37% | 1026.3 hPa | 0 mm | - | 308 W/m² | - |
| 1778006053 | 8.89° C | 38% | 1026.3 hPa | 0 mm | - | 990 W/m² | - |
| 1778005749 | 8.89° C | 36% | 1026.5 hPa | 0 mm | - | 780 W/m² | - |
| 1778005446 | 8.33° C | 41% | 1026.4 hPa | 0 mm | - | 715 W/m² | - |
| 1778005143 | 8.33° C | 39% | 1026.6 hPa | 0 mm | - | 817 W/m² | - |
| 1778004840 | 7.78° C | 41% | 1026.6 hPa | 0 mm | - | 330 W/m² | - |
| 1778004537 | 8.89° C | 39% | 1026.5 hPa | 0 mm | - | 339 W/m² | - |
| 1778004233 | 8.33° C | 40% | 1026.6 hPa | 0 mm | - | 459 W/m² | - |
| 1778003930 | 9.44° C | 39% | 1026.8 hPa | 0 mm | - | 406 W/m² | - |
| 1778003626 | 8.89° C | 41% | 1026.8 hPa | 0 mm | - | 500 W/m² | - |
| 1778003323 | 7.78° C | 42% | 1026.5 hPa | 0 mm | - | 516 W/m² | - |
| 1778003021 | 7.78° C | 41% | 1026.8 hPa | 0 mm | - | 318 W/m² | - |
| 1778002716 | 7.78° C | 42% | 1026.6 hPa | 0 mm | - | 315 W/m² | - |
| 1778002413 | 7.78° C | 42% | 1026.6 hPa | 0 mm | - | 354 W/m² | - |
| 1778002110 | 7.78° C | 43% | 1026.6 hPa | 0 mm | - | 318 W/m² | - |
| 1778001808 | 8.33° C | 41% | 1026.5 hPa | 0 mm | - | 280 W/m² | - |
| 1778001507 | 8.33° C | 42% | 1026.6 hPa | 0 mm | - | 665 W/m² | - |
* Rain latest hour (hover to see other rain measurements)
** Current wind speed in m/s (hover to see current wind gust speed)